GW0360 Weather Reports


Display with metric or nautical units.
time (UTC)temp
F
wind
direction
speed
MPH
gust
MPH
rain 1hr
in
rain 24hr
in
rain mn
in
humidity
%
barometer
mb
20260905220106 99 0 1.0 6.0 0.00 0.00 0.00 39 1012.7
20260905215544 99 0 0.0 4.0 0.00 0.00 0.00 39 1012.6
20260905215043 99 136 1.0 6.0 0.00 0.00 0.00 39 1012.7
20260905214600 99 0 1.0 6.0 0.00 0.00 0.00 40 1012.7
20260905214046 99 270 1.0 7.0 0.00 0.00 0.00 39 1012.7
20260905213544 100 175 2.0 7.0 0.00 0.00 0.00 39 1012.8
20260905213100 100 221 3.0 7.0 0.00 0.00 0.00 37 1012.7
20260905212547 101 243 3.0 7.0 0.00 0.00 0.00 37 1012.8
20260905212044 100 225 2.0 10.0 0.00 0.00 0.00 37 1012.9
20260905211606 100 184 4.0 10.0 0.00 0.00 0.00 38 1012.9
20260905211044 100 219 5.0 10.0 0.00 0.00 0.00 37 1013.0
20260905210543 100 202 3.0 7.0 0.00 0.00 0.00 38 1013.1
20260905210116 99 0 0.0 4.0 0.00 0.00 0.00 40 1013.1
20260905205545 99 0 0.0 7.0 0.00 0.00 0.00 40 1013.1
20260905205044 99 207 1.0 7.0 0.00 0.00 0.00 41 1013.4
20260905204601 99 251 2.0 10.0 0.00 0.00 0.00 39 1013.4
20260905204044 100 178 3.0 10.0 0.00 0.00 0.00 38 1013.4
20260905203544 101 215 3.0 10.0 0.00 0.00 0.00 39 1013.4
20260905203101 100 253 2.0 6.0 0.00 0.00 0.00 40 1013.4
20260905202548 99 0 0.0 9.0 0.00 0.00 0.00 41 1013.5
20260905202045 100 96 2.0 9.0 0.00 0.00 0.00 42 1013.7
20260905201600 100 213 3.0 9.0 0.00 0.00 0.00 40 1013.6
20260905201048 100 241 1.0 9.0 0.00 0.00 0.00 40 1013.7
20260905200544 100 215 3.0 8.0 0.00 0.00 0.00 40 1013.8
20260905200127 100 207 1.0 7.0 0.00 0.00 0.00 39 1013.8
20260905195545 99 235 1.0 8.0 0.00 0.00 0.00 41 1013.9
20260905195045 100 134 3.0 9.0 0.00 0.00 0.00 40 1013.9
20260905194601 100 246 2.0 9.0 0.00 0.00 0.00 41 1014.0
20260905194048 100 239 3.0 9.0 0.00 0.00 0.00 39 1014.0
20260905193545 100 244 3.0 7.0 0.00 0.00 0.00 39 1014.0
20260905193102 99 255 1.0 7.0 0.00 0.00 0.00 41 1014.0
20260905192540 99 109 2.0 7.0 0.00 0.00 0.00 41 1014.0
20260905192041 99 163 2.0 6.0 0.00 0.00 0.00 40 1014.1
20260905191559 100 194 2.0 5.0 0.00 0.00 0.00 40 1014.1
20260905191040 100 163 2.0 9.0 0.00 0.00 0.00 41 1014.2
20260905190540 100 114 3.0 9.0 0.00 0.00 0.00 40 1014.3
20260905190057 99 269 1.0 10.0 0.00 0.00 0.00 40 1014.4
20260905185540 98 0 2.0 10.0 0.00 0.00 0.00 40 1014.3
20260905185040 98 239 2.0 8.0 0.00 0.00 0.00 41 1014.4
20260905184611 98 172 1.0 8.0 0.00 0.00 0.00 43 1014.4
20260905184044 98 123 2.0 8.0 0.00 0.00 0.00 44 1014.4
20260905183541 99 225 2.0 8.0 0.00 0.00 0.00 43 1014.6
20260905183103 98 227 1.0 5.0 0.00 0.00 0.00 43 1014.8
20260905182540 98 0 1.0 5.0 0.00 0.00 0.00 43 1014.9
20260905182042 97 173 1.0 7.0 0.00 0.00 0.00 45 1014.8
20260905181558 97 154 1.0 7.0 0.00 0.00 0.00 44 1015.0
20260905181040 97 142 2.0 8.0 0.00 0.00 0.00 45 1014.9
20260905180540 97 200 1.0 8.0 0.00 0.00 0.00 45 1014.9
20260905180103 98 244 2.0 8.0 0.00 0.00 0.00 46 1015.1
20260905175541 98 173 1.0 6.0 0.00 0.00 0.00 46 1015.2
20260905175041 98 0 2.0 9.0 0.00 0.00 0.00 47 1015.1
20260905174606 98 169 3.0 9.0 0.00 0.00 0.00 46 1015.2
20260905174042 97 215 1.0 8.0 0.00 0.00 0.00 51 1015.3
20260905173541 96 257 1.0 8.0 0.00 0.00 0.00 52 1015.4
20260905173103 96 204 2.0 8.0 0.00 0.00 0.00 51 1015.6
20260905172541 96 234 1.0 5.0 0.00 0.00 0.00 51 1015.6
20260905172040 96 180 1.0 7.0 0.00 0.00 0.00 51 1015.6
20260905171600 96 137 0.0 7.0 0.00 0.00 0.00 52 1015.8
20260905171040 96 237 1.0 5.0 0.00 0.00 0.00 53 1015.8
20260905170540 95 188 0.0 5.0 0.00 0.00 0.00 54 1015.8
20260905170056 95 275 2.0 6.0 0.00 0.00 0.00 53 1015.7
20260905165542 95 215 2.0 7.0 0.00 0.00 0.00 52 1015.8
20260905165040 94 212 1.0 7.0 0.00 0.00 0.00 53 1015.8
20260905164607 95 204 2.0 7.0 0.00 0.00 0.00 54 1015.8
20260905164040 93 251 1.0 6.0 0.00 0.00 0.00 56 1015.8
20260905163540 93 115 1.0 6.0 0.00 0.00 0.00 56 1015.8
20260905163100 93 203 2.0 6.0 0.00 0.00 0.00 56 1015.9
20260905162540 92 159 1.0 4.0 0.00 0.00 0.00 58 1015.9
20260905162040 91 153 1.0 3.0 0.00 0.00 0.00 58 1015.9
20260905161600 90 0 0.0 3.0 0.00 0.00 0.00 60 1015.9
20260905161044 90 0 0.0 5.0 0.00 0.00 0.00 59 1015.8
20260905160544 90 190 1.0 5.0 0.00 0.00 0.00 60 1015.9
20260905155544 90 183 1.0 6.0 0.00 0.00 0.00 60 1015.8
20260905155043 89 103 0.0 3.0 0.00 0.00 0.00 61 1015.8
20260905154605 89 105 1.0 4.0 0.00 0.00 0.00 61 1015.6
20260905154046 89 221 0.0 5.0 0.00 0.00 0.00 62 1015.4
20260905153546 88 209 1.0 5.0 0.00 0.00 0.00 62 1015.5
20260905153059 88 0 0.0 3.0 0.00 0.00 0.00 62 1015.4
20260905152543 88 223 0.0 3.0 0.00 0.00 0.00 64 1015.3
20260905152044 87 148 0.0 3.0 0.00 0.00 0.00 63 1015.2
20260905151638 87 125 1.0 3.0 0.00 0.00 0.00 64 1015.3
20260905151043 86 203 1.0 4.0 0.00 0.00 0.00 64 1015.2
20260905150543 86 157 1.0 4.0 0.00 0.00 0.00 64 1015.3
20260905145546 85 0 0.0 3.0 0.00 0.00 0.00 65 1015.1
20260905145043 85 219 0.0 3.0 0.00 0.00 0.00 66 1015.1
20260905144559 84 224 0.0 3.0 0.00 0.00 0.00 67 1015.0
20260905144044 84 228 0.0 3.0 0.00 0.00 0.00 67 1015.0
20260905143543 84 196 0.0 3.0 0.00 0.00 0.00 67 1015.1
20260905143102 84 125 0.0 2.0 0.00 0.00 0.00 66 1015.0
20260905142548 84 117 0.0 2.0 0.00 0.00 0.00 67 1015.1
20260905142047 83 188 0.0 2.0 0.00 0.00 0.00 69 1015.1
20260905141558 83 0 0.0 2.0 0.00 0.00 0.00 69 1015.1
20260905141045 82 0 0.0 2.0 0.00 0.00 0.00 69 1015.1
20260905140544 81 123 0.0 2.0 0.00 0.00 0.00 71 1015.0
20260905135543 81 0 0.0 3.0 0.00 0.00 0.00 71 1015.0
20260905135044 81 0 0.0 2.0 0.00 0.00 0.00 71 1014.9
20260905134600 81 0 0.0 2.0 0.00 0.00 0.00 71 1015.0
20260905134047 80 157 0.0 3.0 0.00 0.00 0.00 72 1015.0
20260905133544 80 0 0.0 3.0 0.00 0.00 0.00 72 1014.9
20260905133056 80 186 0.0 4.0 0.00 0.00 0.00 72 1014.8
20260905132545 80 0 0.0 4.0 0.00 0.00 0.00 73 1014.8
20260905132044 79 0 0.0 0.0 0.00 0.00 0.00 73 1014.6
20260905131604 79 0 0.0 0.0 0.00 0.00 0.00 74 1014.5
20260905131045 78 0 0.0 0.0 0.00 0.00 0.00 74 1014.6
20260905130545 78 0 0.0 0.0 0.00 0.00 0.00 76 1014.4
20260905125541 77 0 0.0 0.0 0.00 0.00 0.00 77 1014.2
20260905125040 76 0 0.0 0.0 0.00 0.00 0.00 78 1014.3
20260905124604 76 0 0.0 1.0 0.00 0.00 0.00 78 1014.3
20260905124040 76 0 0.0 2.0 0.00 0.00 0.00 78 1014.2
20260905123544 75 0 0.0 2.0 0.00 0.00 0.00 79 1014.2
20260905123114 75 0 0.0 2.0 0.00 0.00 0.00 78 1014.1
20260905122543 76 0 0.0 2.0 0.00 0.00 0.00 78 1014.0
20260905122043 75 0 0.0 2.0 0.00 0.00 0.00 78 1014.0
20260905121605 75 0 0.0 1.0 0.00 0.00 0.00 79 1014.0
20260905121044 75 0 0.0 0.0 0.00 0.00 0.00 79 1014.0
20260905120546 75 0 0.0 0.0 0.00 0.00 0.00 79 1013.9
20260905120101 75 0 0.0 0.0 0.00 0.00 0.00 78 1013.7
20260905115545 75 0 0.0 0.0 0.00 0.00 0.00 78 1013.7
20260905115046 75 0 0.0 0.0 0.00 0.00 0.00 77 1013.7
20260905114603 75 0 0.0 0.0 0.00 0.00 0.00 77 1013.7
20260905114044 76 0 0.0 1.0 0.00 0.00 0.00 76 1013.5
20260905113544 76 0 0.0 1.0 0.00 0.00 0.00 75 1013.5
20260905113100 76 0 0.0 1.0 0.00 0.00 0.00 75 1013.5
20260905112544 77 0 0.0 1.0 0.00 0.00 0.00 74 1013.6
20260905112044 77 0 0.0 2.0 0.00 0.00 0.00 73 1013.4
20260905111606 78 0 0.0 4.0 0.00 0.00 0.00 72 1013.5
20260905111041 78 215 0.0 4.0 0.00 0.00 0.00 72 1013.3
20260905110545 78 232 0.0 4.0 0.00 0.00 0.00 71 1013.4
20260905110058 78 223 0.0 6.0 0.00 0.00 0.00 71 1013.5
20260905105543 78 0 1.0 6.0 0.00 0.00 0.00 71 1013.4
20260905105044 78 225 1.0 6.0 0.00 0.00 0.00 71 1013.4
20260905104559 79 206 1.0 5.0 0.00 0.00 0.00 70 1013.3
20260905104044 79 0 1.0 5.0 0.00 0.00 0.00 71 1013.5
20260905103543 78 212 0.0 5.0 0.00 0.00 0.00 71 1013.5
20260905103104 78 180 1.0 5.0 0.00 0.00 0.00 71 1013.5
20260905102547 78 219 0.0 5.0 0.00 0.00 0.00 72 1013.4
20260905102047 78 207 1.0 5.0 0.00 0.00 0.00 72 1013.4
20260905101606 78 0 0.0 4.0 0.00 0.00 0.00 73 1013.4
20260905101043 77 201 1.0 4.0 0.00 0.00 0.00 74 1013.3
20260905100543 77 0 0.0 4.0 0.00 0.00 0.00 75 1013.3
20260905100110 76 186 0.0 3.0 0.00 0.00 0.00 76 1013.3
20260905095543 76 0 0.0 3.0 0.00 0.00 0.00 77 1013.3
20260905095046 76 226 0.0 3.0 0.00 0.00 0.00 77 1013.4
20260905094604 76 0 0.0 1.0 0.00 0.00 0.00 77 1013.4
20260905094043 76 0 0.0 1.0 0.00 0.00 0.00 77 1013.5
20260905093543 76 0 0.0 0.0 0.00 0.00 0.00 77 1013.5
20260905093419 76 0 0.0 0.0 0.00 0.00 0.00 77 1013.6
20260905092544 76 0 0.0 0.0 0.00 0.00 0.00 77 1013.6
20260905092044 76 0 0.0 2.0 0.00 0.00 0.00 76 1013.5
20260905091604 76 0 0.0 2.0 0.00 0.00 0.00 75 1013.6
20260905091043 77 0 0.0 2.0 0.00 0.00 0.00 75 1013.7
20260905090600 77 0 0.0 2.0 0.00 0.00 0.00 75 1013.6
20260905090059 77 0 0.0 2.0 0.00 0.00 0.00 74 1013.7
20260905085544 77 0 0.0 2.0 0.00 0.00 0.00 74 1013.7
20260905085046 77 249 0.0 2.0 0.00 0.00 0.00 75 1013.8
20260905084611 76 0 0.0 2.0 0.00 0.00 0.00 76 1013.7
20260905084043 76 0 0.0 2.0 0.00 0.00 0.00 76 1013.7
20260905083547 76 0 0.0 1.0 0.00 0.00 0.00 76 1013.7
20260905083108 77 0 0.0 1.0 0.00 0.00 0.00 75 1013.8
20260905082543 77 0 0.0 1.0 0.00 0.00 0.00 75 1013.8
20260905082044 77 0 0.0 1.0 0.00 0.00 0.00 74 1013.8
20260905081602 77 0 0.0 1.0 0.00 0.00 0.00 74 1013.7
20260905081043 77 0 0.0 1.0 0.00 0.00 0.00 74 1013.7
20260905080543 78 0 0.0 1.0 0.00 0.00 0.00 73 1013.8
20260905080218 78 0 0.0 1.0 0.00 0.00 0.00 74 1013.7
20260905075600 77 226 0.0 1.0 0.00 0.00 0.00 74 1013.8
20260905075043 77 0 0.0 1.0 0.00 0.00 0.00 75 1013.9
20260905074603 77 0 0.0 1.0 0.00 0.00 0.00 74 1013.8
20260905074044 77 0 0.0 1.0 0.00 0.00 0.00 74 1013.9
20260905073543 77 0 0.0 1.0 0.00 0.00 0.00 73 1013.8
20260905073155 78 0 0.0 1.0 0.00 0.00 0.00 73 1013.9
20260905072547 77 0 0.0 1.0 0.00 0.00 0.00 73 1013.8
20260905072048 78 0 0.0 2.0 0.00 0.00 0.00 73 1013.6
20260905071642 78 0 0.0 2.0 0.00 0.00 0.00 73 1013.8
20260905071043 78 226 0.0 1.0 0.00 0.00 0.00 73 1013.7
20260905070543 78 226 0.0 1.0 0.00 0.00 0.00 73 1013.7
20260905070101 77 0 0.0 1.0 0.00 0.00 0.00 74 1013.9
20260905065702 77 0 0.0 0.0 0.00 0.00 0.00 74 1013.9
20260905065043 77 0 0.0 0.0 0.00 0.00 0.00 74 1013.8
20260905064601 77 0 0.0 0.0 0.00 0.00 0.00 74 1013.9
20260905064044 78 0 0.0 0.0 0.00 0.00 0.00 73 1013.9
20260905063543 78 0 0.0 0.0 0.00 0.00 0.00 73 1014.0
20260905063102 78 0 0.0 0.0 0.00 0.00 0.00 73 1013.8
20260905062543 78 0 0.0 1.0 0.00 0.00 0.00 72 1013.8
20260905062045 78 0 0.0 1.0 0.00 0.00 0.00 71 1013.8
20260905061606 79 0 0.0 1.0 0.00 0.00 0.00 71 1013.8
20260905061041 79 0 0.0 1.0 0.00 0.00 0.00 71 1014.0
20260905060543 79 0 0.0 1.0 0.00 0.00 0.00 71 1013.9
20260905060108 79 0 0.0 1.0 0.00 0.00 0.00 71 1014.0
20260905055546 79 0 0.0 1.0 0.00 0.00 0.00 71 1014.0
20260905055043 79 0 0.0 1.0 0.00 0.00 0.00 70 1013.9
20260905054616 79 0 0.0 1.0 0.00 0.00 0.00 70 1013.9
20260905054043 79 0 0.0 1.0 0.00 0.00 0.00 70 1014.0
20260905053547 80 0 0.0 2.0 0.00 0.00 0.00 69 1013.8
20260905053108 80 0 0.0 2.0 0.00 0.00 0.00 69 1013.9
20260905052547 80 0 0.0 1.0 0.00 0.00 0.00 70 1013.8
20260905052044 80 0 0.0 2.0 0.00 0.00 0.00 69 1013.8
20260905051601 80 0 0.0 2.0 0.00 0.00 0.00 69 1013.8
20260905051043 80 0 0.0 1.0 0.00 0.00 0.00 69 1013.8
20260905050545 80 180 0.0 1.0 0.00 0.00 0.00 69 1013.8
20260905050105 80 0 0.0 1.0 0.00 0.00 0.00 69 1013.8
20260905045543 80 0 0.0 1.0 0.00 0.00 0.00 70 1013.8
20260905045043 80 0 0.0 1.0 0.00 0.00 0.00 69 1013.7
20260905044607 80 0 0.0 1.0 0.00 0.00 0.00 69 1013.8
20260905044043 80 0 0.0 0.0 0.00 0.00 0.00 69 1013.7
20260905043543 80 0 0.0 1.0 0.00 0.00 0.00 68 1013.8
20260905043109 80 0 0.0 1.0 0.00 0.00 0.00 69 1013.6
20260905042543 81 0 0.0 2.0 0.00 0.00 0.00 67 1013.7
20260905042040 81 0 0.0 2.0 0.00 0.00 0.00 67 1013.8
20260905041602 81 0 0.0 0.0 0.00 0.00 0.00 67 1013.7
20260905041046 81 0 0.0 0.0 0.00 0.00 0.00 67 1013.7
20260905040543 81 0 0.0 0.0 0.00 0.00 0.00 66 1013.7
20260905040141 81 0 0.0 1.0 0.00 0.00 0.00 65 1013.6
20260905035543 82 0 0.0 1.0 0.00 0.00 0.00 65 1013.6
20260905035044 82 0 0.0 1.0 0.00 0.00 0.00 65 1013.8
20260905034606 82 0 0.0 0.0 0.00 0.00 0.00 64 1013.7
20260905034043 82 0 0.0 0.0 0.00 0.00 0.00 64 1013.7
20260905033543 82 0 0.0 1.0 0.00 0.00 0.00 63 1013.6
20260905033053 83 0 0.0 2.0 0.00 0.00 0.00 63 1013.6
20260905032548 83 0 0.0 2.0 0.00 0.00 0.00 63 1013.5
20260905032043 83 0 0.0 2.0 0.00 0.00 0.00 63 1013.4
20260905031600 82 225 0.0 1.0 0.00 0.00 0.00 64 1013.4
20260905031045 82 0 0.0 0.0 0.00 0.00 0.00 64 1013.4
20260905030543 83 0 0.0 1.0 0.00 0.00 0.00 64 1013.4
20260905030100 83 0 0.0 1.0 0.00 0.00 0.00 64 1013.2
20260905025543 83 0 0.0 2.0 0.00 0.00 0.00 65 1013.2
20260905025043 83 0 0.0 2.0 0.00 0.00 0.00 65 1013.1
20260905024601 82 0 0.0 0.0 0.00 0.00 0.00 66 1013.1
20260905024043 82 0 0.0 0.0 0.00 0.00 0.00 67 1012.9
20260905023543 82 0 0.0 0.0 0.00 0.00 0.00 67 1013.0
20260905023104 82 0 0.0 0.0 0.00 0.00 0.00 68 1012.8
20260905022542 83 0 0.0 0.0 0.00 0.00 0.00 68 1012.9
20260905022040 83 0 0.0 0.0 0.00 0.00 0.00 68 1012.8
20260905021600 83 0 0.0 0.0 0.00 0.00 0.00 68 1012.8
20260905021043 83 0 0.0 0.0 0.00 0.00 0.00 67 1012.8
20260905020540 83 0 0.0 0.0 0.00 0.00 0.00 67 1012.7
20260905020058 83 0 0.0 0.0 0.00 0.00 0.00 66 1012.6
20260905015543 84 0 0.0 0.0 0.00 0.00 0.00 65 1012.6
20260905015043 84 0 0.0 0.0 0.00 0.00 0.00 64 1012.6
20260905014557 85 0 0.0 0.0 0.00 0.00 0.00 63 1012.5
20260905014045 85 0 0.0 0.0 0.00 0.00 0.00 62 1012.5
20260905013543 85 0 0.0 1.0 0.00 0.00 0.00 63 1012.5
20260905013105 86 0 0.0 1.0 0.00 0.00 0.00 62 1012.4
20260905012544 86 0 0.0 0.0 0.00 0.00 0.00 60 1012.3
20260905012041 86 0 0.0 1.0 0.00 0.00 0.00 59 1012.3
20260905011619 87 0 0.0 1.0 0.00 0.00 0.00 59 1012.3
20260905011043 87 0 0.0 1.0 0.00 0.00 0.00 58 1012.4
20260905010544 88 0 0.0 1.0 0.00 0.00 0.00 57 1012.3
20260905010058 88 0 0.0 1.0 0.00 0.00 0.00 56 1012.3
20260905005543 88 0 0.0 1.0 0.00 0.00 0.00 55 1012.3
20260905005043 89 0 0.0 0.0 0.00 0.00 0.00 54 1012.3
20260905004607 89 0 0.0 1.0 0.00 0.00 0.00 54 1012.3
20260905004043 89 0 0.0 1.0 0.00 0.00 0.00 54 1012.3
20260905003544 90 0 0.0 1.0 0.00 0.00 0.00 53 1012.3
20260905003105 90 0 0.0 1.0 0.00 0.00 0.00 53 1012.2
20260905002545 90 0 0.0 1.0 0.00 0.00 0.00 52 1012.4
20260905002044 91 0 0.0 0.0 0.00 0.00 0.00 51 1012.4
20260905001611 91 0 0.0 2.0 0.00 0.00 0.00 51 1012.4
20260905001043 92 0 0.0 2.0 0.00 0.00 0.00 50 1012.4
20260905000544 92 0 0.0 4.0 0.00 0.00 0.00 49 1012.5
20260905000110 93 0 0.0 4.0 0.00 0.00 0.00 49 1012.5
20260904235543 93 0 1.0 4.0 0.00 0.00 0.00 47 1012.6
20260904235043 93 196 0.0 7.0 0.00 0.00 0.00 47 1012.6
20260904234607 94 0 1.0 7.0 0.00 0.00 0.00 47 1012.5
20260904234043 94 198 2.0 7.0 0.00 0.00 0.00 46 1012.7
20260904233543 94 203 0.0 6.0 0.00 0.00 0.00 46 1012.5
20260904233111 95 165 1.0 7.0 0.00 0.00 0.00 46 1012.6
20260904232543 95 219 1.0 8.0 0.00 0.00 0.00 46 1012.7
20260904232043 95 283 3.0 8.0 0.00 0.00 0.00 45 1012.5
20260904231603 95 186 1.0 7.0 0.00 0.00 0.00 45 1012.6
20260904231040 95 238 0.0 8.0 0.00 0.00 0.00 45 1012.7
20260904230544 95 221 1.0 8.0 0.00 0.00 0.00 44 1012.7
20260904230101 96 188 4.0 8.0 0.00 0.00 0.00 43 1012.7
20260904225543 96 271 1.0 5.0 0.00 0.00 0.00 44 1012.6
20260904225044 96 133 0.0 7.0 0.00 0.00 0.00 45 1012.6
20260904224600 96 223 3.0 9.0 0.00 0.00 0.00 43 1012.5
20260904224043 96 212 2.0 9.0 0.00 0.00 0.00 44 1012.6
20260904223543 96 162 2.0 10.0 0.00 0.00 0.00 44 1012.6
20260904223107 97 265 3.0 10.0 0.00 0.00 0.00 42 1012.5
20260904222540 97 200 4.0 9.0 0.00 0.00 0.00 42 1012.6
20260904222041 97 153 2.0 10.0 0.00 0.00 0.00 45 1012.6
20260904221605 97 227 3.0 10.0 0.00 0.00 0.00 45 1012.6
20260904221041 97 213 2.0 7.0 0.00 0.00 0.00 44 1012.5
20260904220544 97 167 1.0 10.0 0.00 0.00 0.00 44 1012.5